Location: Boulin
(43.2500°N, 0.1333°E)
Time: 04:53:32
(UTC+00:00)

Cosmos 1933 - Pass Details

Date: 19 March 2026
Orbit: 507 x 515 km, 82.5° (Epoch: 15 April)

Event Time Altitude Azimuth Distance (km) Brightness Sun altitude
Rises 03:44:02 0° 150° (SSE) 2,619 6.8 -25.7°
Reaches altitude 10° 03:46:39 10° 131° (SE) 1,737 6.1 -25.2°
Maximum altitude 03:49:16 18° 87° (E) 1,319 6.0 -24.8°
Drops below altitude 10° 03:51:53 10° 44° (NE) 1,745 6.8 -24.4°
Sets 03:54:31 0° 25° (NNE) 2,636 7.5 -23.9°
